{"data":{"norad_id":55501,"intl_designator":"2023-015BE","name":"STARLINK-5367","alt_names":[],"object_type":"PAYLOAD","status":"ACTIVE","operator":null,"country":"US","launch_date":"2023-02-02","launch_site_code":"AFETR","launch_vehicle":null,"mission":null,"orbit_class":"UNKNOWN","rcs_meters":null,"size_class":null,"mass_kg":null,"dimensions":null,"purposes":["comms"],"wikipedia_slug":null,"has_3d_model":false,"image_url":null,"decayed_at":null,"tle_current":{"epoch":"2026-09-20T15:00:25.678080Z","epoch_age_seconds":89370,"freshness":"FRESH","line1":"1 55501U 23015BE  26263.62529720  .00000704  00000+0  35111-4 0  9994","line2":"2 55501  43.0053 319.2060 0001707 266.7460  93.3197 15.27589358200401","mean_motion":15.27589358,"eccentricity":0.0001707,"inclination_deg":43.0053,"raan_deg":319.206,"arg_perigee_deg":266.746,"mean_anomaly_deg":93.3197,"bstar":3.5111e-5,"rev_number":20040,"period_min":94.266171236315,"perigee_km":481.84987528078,"apogee_km":484.19227464757,"semimajor_km":6861.1580749642,"source":"CELESTRAK","updated_at":"2026-09-21T09:00:33.261885Z"}}}